Regional Weather Roundup
Issued by NWS

Home | Current Version | Previous Version | Graphics & Text | Print | Product List | Glossary Off
Versions: 1 2 3 4 5 6 7 8 9 10 11 12 13 14 15 16 17 18 19 20 21 22 23 24 25 26 27 28 29 30 31 32 33 34 35 36 37 38 39 40 41 42 43 44 45 46 47 48 49 50

000
ASUS43 KTOP 231308
RWRKS

WEATHER ROUNDUP FOR KANSAS
NATIONAL WEATHER SERVICE GOODLAND KS
800 AM CDT THU MAR 23 2017

NOTE:  "FAIR" INDICATES FEW OR NO CLOUDS BELOW 12,000 FEET WITH NO
SIGNIFICANT WEATHER AND/OR OBSTRUCTIONS TO VISIBILITY.

KSZ001>006-013>018-027>032-041>047-231400-
NORTHWEST KANSAS

CITY           SKY/WX    TMP DP  RH WIND       PRES   REMARKS
GOODLAND       CLEAR     44  44 100 S18       29.72S FOG
HAYS             N/A     55  51  86 S20       29.82F
HILL CITY      CLOUDY    52  52 100 SE10      29.80F FOG
RUSSELL        CLOUDY    55  49  80 S20       29.82F
$$

KSZ061>065-074>080-084>089-231400-
SOUTHWEST KANSAS

CITY           SKY/WX    TMP DP  RH WIND       PRES   REMARKS
DODGE CITY     CLOUDY    58  56  93 S17G25    29.83S FOG
ELKHART          N/A     47  40  77 S16         N/A
GARDEN CITY    CLOUDY    57  55  93 S17G23    29.80S FOG
GREAT BEND     CLOUDY    56  52  86 S20G29    29.85F
LIBERAL        CLEAR     52  46  82 S8        29.82S
PRATT          CLOUDY    53  51  93 SE15G22   29.88S FOG
$$

KSZ066>073-081>083-090>101-231400-
SOUTHEAST KANSAS

CITY           SKY/WX    TMP DP  RH WIND       PRES   REMARKS
CHANUTE        MOCLDY    55  44  66 SE15      30.05S
COFFEYVILLE    PTCLDY    55  44  66 SE9       30.06S
HUTCHINSON     CLOUDY    56  50  80 SE20      29.91F
MEDICINE LODGE   N/A     54  50  86 SE13      29.90S
NEWTON         PTCLDY    53  47  79 SE21      29.94F
PARSONS        MOCLDY    55  44  66 SE6       30.07R
WICHITA INTL   PTCLDY    54  49  83 SE17      29.94S
WICHITA JABRA  CLEAR     54  49  83 SE22G30   29.95S
WICHITA MCCONL CLEAR     54  48  79 S21G28    29.94F
WINFIELD       CLEAR     53  47  79 SE16      29.99S
$$

KSZ007>012-019>026-033>040-048>060-102>105-231400-
NORTHEAST KANSAS

CITY           SKY/WX    TMP DP  RH WIND       PRES   REMARKS
CONCORDIA      CLOUDY    51  46  83 SE15      29.91F
EMPORIA        PTCLDY    54  46  74 SE17      29.99F
LAWRENCE       CLOUDY    53  33  46 SE17      30.05F
MANHATTAN      CLOUDY    53  45  74 E7        29.97S
MARYSVILLE     CLOUDY    50  37  62 SE13G21   29.96F
OLATHE IND     CLOUDY    52  33  48 SE17      30.06R
OLATHE EXE     CLOUDY    51  34  52 SE13      30.06F
SALINA         CLOUDY    57  47  69 SE16      29.90F
TOPEKA BILLARD CLOUDY    54  37  52 SE14      30.02F
TOPEKA FORBES  CLOUDY    55  37  50 SE17G23   30.01F
$$



USA.gov is the U.S. government's official web portal to all federal, state and local government web resources and services.